Regional Weather Roundup
Issued by NWS

Home | Current Version | Previous Version | Text Only | Print | Product List | Glossary Off
Versions: 1 2 3 4 5 6 7 8 9 10 11 12 13 14 15 16 17 18 19 20 21 22 23 24 25 26 27 28 29 30 31 32 33 34 35 36 37 38 39 40 41 42 43 44 45 46 47 48 49 50

000
ASUS43 KLOT 220800
RWRIL

ILLINOIS REGIONAL WEATHER ROUNDUP
NATIONAL WEATHER SERVICE CHICAGO/ROMEOVILLE IL
300 AM CDT FRI AUG 22 2014

NOTE: "FAIR" INDICATES FEW OR NO CLOUDS BELOW 12,000 FEET WITH NO
SIGNIFICANT WEATHER AND/OR OBSTRUCTIONS TO VISIBILITY.

* THESE STATIONS ARE NOT UNDER NWS QUALITY CONTROL. THEY ALSO MAY NOT
  REPORT WEATHER SUCH AS PRECIPITATION OR FOG.

ILZ001-002-007-009-015-016-024-220900-
NORTHWEST ILLINOIS

CITY           SKY/WX    TMP DP  RH WIND       PRES   REMARKS
MOLINE         MOCLDY    77  74  90 CALM      29.87R
STERLING*      CLEAR     72  70  94 SE6       29.88S
$$

ILZ003-004-008-010-011-017-018-220900-
NORTH CENTRAL ILLINOIS

CITY           SKY/WX    TMP DP  RH WIND       PRES   REMARKS
ROCKFORD       PTCLDY    73  71  93 CALM      29.89F FOG
$$

ILZ005-006-012>014-019>023-220900-
NORTHEAST ILLINOIS

CITY           SKY/WX    TMP DP  RH WIND       PRES   REMARKS
CHICAGO-OHARE  TSTM      74  70  87 S12       29.91R
CHICAGO-MIDWAY TSTM      75  73  93 S8        29.92S FOG
AURORA         CLOUDY    74  71  91 SE5       29.91R FOG
WAUKEGAN       FOG       70  69  97 E3        29.89F VSB 1/4
DUPAGE AIRPORT FOG       74  72  93 E7        29.90F VSB 1
WHEELING       CLOUDY    75  72  90 SW8       29.93R
NORTHERLY ISL    N/A     73  70  90 S12         N/A
$$

LMZ740>746-220900-
SOUTHERN LAKE MICHIGAN

STATION/POSITION SKY/WX   TEMP    WIND        PRES    VSBY  WAVE
                          AIR SEA DIR/SP/G                  HT/PER
                          (F)     (DEG/KT/KT) (MB)    (MI)  (FT/S)
SOUTHERN BUOY              69 69   90/  6/  8 1012.8F         0
WAUKEGAN HARBOR            71        CALM       N/A
HARRISON CRIB              72      40/ 11/ 15   N/A
BURNHAM HARBOR             73     190/  8/ 11   N/A
CALUMET HARBOR             71     180/  8/ 12 1012.8R
MICHIGAN CITY              72     190/  6/  7   N/A
MICHIGAN CITY 6N           72 71  190/  8/ 10   N/A           1
ST. JOSEPH                 71 71  160/  6/  6   N/A           0
$$

ILZ025>027-034>036-040-047-049-050-058-095>099-220900-
WEST-CENTRAL ILLINOIS

CITY           SKY/WX    TMP DP  RH WIND       PRES   REMARKS
QUINCY         CLEAR     80  72  76 SW10      29.90S HX  84
MACOMB*        MOCLDY    77  74  90 SW5       29.89F
$$

ILZ028>032-037-038-041>044-048-051>054-059>061-220900-
CENTRAL ILLINOIS

CITY           SKY/WX    TMP DP  RH WIND       PRES   REMARKS
DECATUR        CLEAR     78  74  87 SW13      29.91F HX  81
PEORIA         PTCLDY    80  75  84 SW8       29.87F HX  85
SPRINGFIELD    CLEAR     80  75  84 SW10G17   29.89F HX  85
TAYLORVILLE    NOT AVBL
$$

ILZ033-039-045-046-055>057-062-063-220900-
EAST-CENTRAL ILLINOIS

CITY           SKY/WX    TMP DP  RH WIND       PRES   REMARKS
CHAMPAIGN      PTCLDY    76  74  93 SW9       29.91F
MATTOON        CLEAR     77  73  87 SW9       29.93S
$$

ILZ079-100>102-220900-
SOUTHWEST ILLINOIS

CITY           SKY/WX    TMP DP  RH WIND       PRES   REMARKS
BELLEVILLE     CLEAR     77  75  93 CALM      29.94F
CAHOKIA*       CLEAR     81  71  71 SW6       29.94F HX  85
$$

ILZ064>066-069>071-074>076-080>082-084>086-088>090-092>094-220900-
SOUTH-CENTRAL ILLINOIS

CITY           SKY/WX    TMP DP  RH WIND       PRES   REMARKS
CARBONDALE     CLEAR     79  71  76 SW9       29.97F HX  82
MT. VERNON     CLEAR     75  70  83 SW6       29.97S
SALEM*         CLEAR     79  75  87 SW8       29.96S HX  82
$$

ILZ067-068-072-073-078-083-087-091-220900-
SOUTHEAST ILLINOIS

CITY           SKY/WX    TMP DP  RH WIND       PRES   REMARKS
LAWRENCEVILLE  CLEAR     76  73  91 SW6       29.96S
HARRISBURG*    CLEAR     78  74  88 SW7       29.99S HX  81
ROBINSON*      CLEAR     78  75  90 SW7       29.95S HX  80
$$

ABBREVIATIONS USED IN REMARKS
   TC - TEMPERATURE IN CELSIUS
  WCI - WIND CHILL INDEX
   HX - HEAT INDEX
  VSB - VISIBILITY
$$




USA.gov is the U.S. government's official web portal to all federal, state and local government web resources and services.